• MPC Preparation (Info)

  • MPEC 2013-V46 : 2013 VN5

    The following Minor Planet Electronic Circular may be linked-to from your own Web pages, but must not otherwise be redistributed electronically.

    A form allowing access to any MPEC is at the bottom of this page.


    Read MPEC 2013-V45 Read MPEC 2013-V47


    M.P.E.C. 2013-V46                                Issued 2013 Nov. 8, 17:23 UT
    
         The Minor Planet Electronic Circulars contain information on unusual
             minor planets and routine data on comets.  They are published
       on behalf of Commission 20 of the International Astronomical Union by the
              Minor Planet Center, Smithsonian Astrophysical Observatory,
                              Cambridge, MA 02138, U.S.A.
    
                 Prepared using the Tamkin Foundation Computer Network
    
                                  MPC@CFA.HARVARD.EDU
                URL https://www.minorplanetcenter.net/    ISSN 1523-6714
    
                                       2013 VN5
    
    Additional Observations:
         K13V05N KC2013 11 07.94664 04 17 18.27 +02 43 50.8                qEV046J95
         K13V05N KC2013 11 07.96210 04 17 23.99 +02 44 41.4          20.3 RqEV046J95
         K13V05N  C2013 11 08.46068 04 20 23.76 +03 09 12.4          20.9 RoEV046926
         K13V05N  C2013 11 08.47059 04 20 26.41 +03 09 36.2          21.3 RoEV046926
         K13V05N  C2013 11 08.48122 04 20 29.29 +03 10 01.8          20.7 RoEV046926
         K13V05N KC2013 11 08.49743 04 20 33.97 +03 10 37.7          20.7 RoEV046291
         K13V05N KC2013 11 08.49934 04 20 34.50 +03 10 42.0          20.7 RoEV046291
    
    Observer details:
    291 LPL/Spacewatch II.  Observer R. S. McMillan.  1.8-m f/2.7 reflector + CCD.
    926 Tenagra II Observatory.  Observers M. Schwartz, P. R. Holvorcem.  0.81-m
        f/7 Ritchey-Chretien + CCD.
    J95 Great Shefford.  Observer P. Birtwhistle.  0.40-m f/6.0 Schmidt-Cassegrain
        + CCD.
    
    Orbital elements:
    2013 VN5                                                 Earth MOID = 0.0004 AU
    Epoch 2013 Nov. 4.0 TT = JDT 2456600.5                  MPC
    M  13.27897              (2000.0)            P               Q
    n   0.42743372     Peri.  140.64222     +0.99839092     -0.02190272
    a   1.7453808      Node   220.70591     +0.00277541     +0.94016254
    e   0.4737184      Incl.    4.60012     +0.05663799     +0.34002156
    P   2.31           H   27.4           G   0.15           U   6
    Residuals in seconds of arc
    131106 F51  0.4-  0.0     131107 807  0.2+  0.2+    131107 H01  0.0   0.1+
    131106 F51  0.3-  0.1-    131107 H36  0.1-  0.1-    131107 H01  0.1+  0.1+
    131106 F51  0.2-  0.4-    131107 H21  0.1+  0.2+    131107 J95  0.2-  1.2-
    131106 F51  0.7+  0.7+    131107 H21  0.1-  0.4-    131107 J95  0.0   0.7+
    131106 104  0.9-  0.1-    131107 H01  0.1-  0.0     131108 926  0.6-  0.1-
    131106 104  0.3+  0.3-    131107 H36  0.5+  0.8-    131108 926  0.2-  0.1+
    131106 104  0.2+  0.3-    131107 H21  0.2+  0.6-    131108 926  0.1+  0.5+
    131107 807  0.3+  0.3+    131107 H01  0.1+  0.1+    131108 291  0.2+  0.7+
    131107 807  0.0   0.3+    131107 H36  0.9+  0.1-    131108 291  0.1+  0.5+
    
    Ephemeris:
    2013 VN5                 a,e,i = 1.75, 0.47, 5                   q = 0.9186
    Date    TT    R. A. (2000) Decl.     Delta      r     Elong.  Phase     V
    2013 10 09    16 38 04.4 -06 41 03   0.1507  0.9201    54.7   117.6    27.8
    ...
    2013 10 24    16 54 39.5 -07 01 20   0.06306 0.9510    44.8   132.5    27.3
    ...
    2013 11 01    17 26 59.8 -10 00 16   0.01732 0.9804    44.7   134.6    24.7
    ...
    2013 11 07    04 07 46.0 +01 46 07   0.01772 1.0073   155.7    23.9    19.8
    2013 11 08    04 17 31.9 +02 51 16   0.02339 1.0121   155.0    24.4    20.4
    2013 11 09    04 23 26.7 +03 31 23   0.02910 1.0170   154.8    24.5    20.9
    ...
    2013 11 15    04 35 50.8 +05 07 27   0.06386 1.0484   157.4    21.3    22.6
    ...
    2013 11 23    04 38 35.6 +06 01 13   0.1119  1.0946   162.1    16.1    23.7
    ...
    2013 12 08    04 37 55.3 +07 34 52   0.2121  1.1905   164.1    13.1    25.2
    
    A. U. Tomatic                (C) Copyright 2013 MPC           M.P.E.C. 2013-V46
    

    Read MPEC 2013-V45 Read MPEC 2013-V47


    MPEC number:

    Enter an MPEC number in one of the following forms:

    • 1997-B01 (the full form)
    • J97B01 (the packed version of the full form)
    • B01 (the abbreviated form)